Regional Weather Roundup
Issued by NWS

Home | Current Version | Previous Version | Graphics & Text | Print | Product List | Glossary On
Versions: 1 2 3 4 5 6 7 8 9 10 11 12 13 14 15 16 17 18 19 20 21 22 23 24 25 26 27 28 29 30 31 32 33 34 35 36 37 38 39 40 41 42 43 44 45 46 47 48 49 50
000
ASUS43 KIND 150959
RWRIN

WEATHER ROUNDUP FOR INDIANA
NATIONAL WEATHER SERVICE INDIANAPOLIS IN
500 AM EST FRI DEC 15 2017

NOTE: "FAIR" INDICATES FEW OR NO CLOUDS BELOW 12,000 FEET WITH NO
SIGNIFICANT WEATHER AND/OR OBSTRUCTIONS TO VISIBILITY.

* - STATION DOES NOT REPORT WEATHER SUCH AS PRECIPITATION OR FOG.

+ - STATION NOT QUALITY CONTROLLED BY THE NATIONAL WEATHER SERVICE.
    USE DATA WITH CAUTION...ESPECIALLY DEWPOINT AND RELATIVE
    HUMIDITY OBSERVATIONS.

INZ001>003-010>013-019-020-151100-
NORTHWEST INDIANA

CITY           SKY/WX    TMP DP  RH WIND       PRES   REMARKS
KNOX *+        CLOUDY    21  14  73 SW5       29.97F WCI  15
LA PORTE +     CLOUDY    17  14  87 SW6       29.96F WCI   9
MICHIGAN CITY+ CLOUDY    21  14  73 SW9       29.96F WCI  11
MONTICELLO +   CLOUDY    20  13  74 SW3       29.99F
RENSSELAER +   CLOUDY    21  14  73 SW6       29.99F WCI  14

$$

LMZ046-743>745-151100-
SOUTHERN LAKE MICHIGAN

STATION/POSITION TIME  TEMP    WIND        PRES    WAVE
                       AIR SEA DIR/SP/G            HT
                 (UTC) (F)     (DEG/KT/KT) (MB)    (FT)
BURNS HARBOR     0940   22     200/ 12/ 14 1014.9F
MICHIGAN CITY    0930   21     180/ 11/ 13   N/A

$$

INZ004-005-014>016-021>024-151100-
NORTH CENTRAL INDIANA

CITY           SKY/WX    TMP DP  RH WIND       PRES   REMARKS
GOSHEN         CLOUDY    19  13  77 SW8       29.94F WCI   9
PERU/GRISSOM   CLOUDY    22  17  80 SW7       29.98S WCI  14
SOUTH BEND     CLOUDY    17  12  80 SW7       29.95F WCI   8
WARSAW +       CLOUDY    19  14  79 CALM      29.96F

$$

INZ006>009-017-018-025>027-151100-
NORTHEAST INDIANA

CITY           SKY/WX    TMP DP  RH WIND       PRES   REMARKS
AUBURN +       CLOUDY    21  14  73 S3        29.96F
FORT WAYNE     CLOUDY    23  17  78 SW9       29.98F WCI  13
KENDALLVILLE + CLOUDY    19  13  76 W5        29.95F WCI  12

$$

INZ028-029-035-036-043>045-051>053-151100-
WEST CENTRAL INDIANA

CITY           SKY/WX    TMP DP  RH WIND       PRES   REMARKS
CRAWFORDSVL +  CLOUDY    22  17  80 MISG        N/A
GREENCASTLE +  CLOUDY    27  16  63 SW5       30.03F WCI  21
LAFAYETTE      CLOUDY    21  17  84 SW3       30.01F
TERRE HAUTE    CLOUDY    27  17  66 W6        30.06S WCI  20

$$

INZ030>032-037>040-046>048-054>057-064-065-151100-
CENTRAL INDIANA

CITY           SKY/WX    TMP DP  RH WIND       PRES   REMARKS
FRANKFORT +    CLOUDY    26  19  76 W7        30.01F WCI  18
GREENWOOD *+   CLOUDY    28  20  71 S6        30.03S WCI  21
INDIANAPOLIS   CLOUDY    25  14  63 SW10      30.02F WCI  15
-EAGLE CREEK   CLOUDY    26  14  60 SW6       30.01F WCI  19
KOKOMO +       CLOUDY    24  17  74 SW9       29.99F WCI  14
MT COMFORT *+  CLOUDY    23  19  86 S6        30.01F WCI  16
SHELBYVILLE    CLOUDY    23  16  74 S8        30.03S WCI  14

$$

INZ033-034-041-042-049-050-058-059-151100-
EAST CENTRAL INDIANA

CITY           SKY/WX    TMP DP  RH WIND       PRES   REMARKS
MUNCIE         CLOUDY    25  14  63 SW8       29.99F WCI  16
RICHMOND +     CLOUDY    19  18  93 S5        30.01S WCI  13

$$

INZ060-061-067>069-081>083-085>088-151100-
SOUTHWEST INDIANA

CITY           SKY/WX    TMP DP  RH WIND       PRES   REMARKS
EVANSVILLE     CLOUDY    30  22  72 W5        30.10S WCI  25
HUNTINGBURG +  CLOUDY    29  24  82 W5        30.08S WCI  24

$$

INZ062-063-066-070>080-084-089>092-151100-
SOUTH CENTRAL AND SOUTHEAST INDIANA

CITY           SKY/WX    TMP DP  RH WIND       PRES   REMARKS
BLOOMINGTON    CLOUDY    26  16  65 SW6       30.03F WCI  19
MADISON *+     PTCLDY    21  18  86 CALM      30.07R
SEYMOUR +      CLOUDY    23  19  86 CALM      30.06S

$$





USA.gov is the U.S. government's official web portal to all federal, state and local government web resources and services.